Location: Diati
(11.8376°N, 2.5966°E)
Time: 18:17:01
(UTC+00:00)

Helios 1A Rocket - Pass Details

Date: 21 September 2020
Orbit: 563 x 586 km, 98.3° (Epoch: 19 October)

Event Time Altitude Azimuth Distance (km) Brightness Sun altitude
Rises 18:07:03 0° 156° (SSE) 2,766 6.1 -6.0°
Reaches altitude 10° 18:09:15 10° 150° (SSE) 1,872 5.2 -6.5°
Maximum altitude 18:13:08 46° 77° (ENE) 778 3.2 -7.4°
Drops below altitude 10° 18:17:03 10° 4° (N) 1,885 5.5 -8.4°
Sets 18:19:16 0° 358° (N) 2,788 6.5 -8.9°
